H1 CPF 2 NER 2024 9 6 9 250 01 glonass133 H2 1403201 9133 40001 2024 9 6 0 0 0 2024 9 9 23 45 0 900 1 1 0 0 0 1 H9 10 0 60559 0.00000 0 15915644.608 -10562106.164 -16924846.554 10 0 60559 900.00000 0 17787764.539 -11104470.673 -14550285.038 10 0 60559 1800.00000 0 19316106.057 -11702497.481 -11893586.412 10 0 60559 2700.00000 0 20473990.988 -12300242.731 -9006302.022 10 0 60559 3600.00000 0 21247861.912 -12839118.582 -5944431.008 10 0 60559 4500.00000 0 21637656.422 -13260526.348 -2767338.484 10 0 60559 5400.00000 0 21656632.013 -13508502.634 463390.345 10 0 60559 6300.00000 0 21330649.817 -13532267.151 3685138.291 10 0 60559 7200.00000 0 20696947.867 -13288564.921 6835463.821 10 0 60559 8100.00000 0 19802455.998 -12743704.203 9853305.156 10 0 60559 9000.00000 0 18701723.160 -11875204.019 12680157.886 10 0 60559 9900.00000 0 17454544.220 -10672981.438 15261203.624 10 0 60559 10800.00000 0 16123385.558 -9140027.829 17546368.251 10 0 60559 11700.00000 0 14770717.088 -7292544.470 19491289.700 10 0 60559 12600.00000 0 13456362.166 -5159530.299 21058176.898 10 0 60559 13500.00000 0 12234976.036 -2781837.243 22216543.599 10 0 60559 14400.00000 0 11153758.074 -210730.601 22943803.114 10 0 60559 15300.00000 0 10250493.463 2493987.511 23225712.432 10 0 60559 16200.00000 0 9552006.249 5266215.508 23056656.954 10 0 60559 17100.00000 0 9073088.732 8036059.209 22439769.849 10 0 60559 18000.00000 0 8815952.443 10732505.473 21386883.003 10 0 60559 18900.00000 0 8770224.190 13286152.609 19918309.575 10 0 60559 19800.00000 0 8913487.973 15631884.734 18062461.286 10 0 60559 20700.00000 0 9212350.570 17711379.032 15855306.750 10 0 60559 21600.00000 0 9623986.383 19475341.405 13339680.315 10 0 60559 22500.00000 0 10098096.728 20885376.892 10564453.972 10 0 60559 23400.00000 0 10579200.775 21915416.143 7583587.935 10 0 60559 24300.00000 0 11009160.926 22552637.767 4455078.187 10 0 60559 25200.00000 0 11329834.992 22797847.511 1239821.733 10 0 60559 26100.00000 0 11485741.762 22665298.224 -1999577.634 10 0 60559 27000.00000 0 11426625.667 22181958.459 -5200038.792 10 0 60559 27900.00000 0 11109810.388 21386261.121 -8299242.836 10 0 60559 28800.00000 0 10502240.208 20326385.850 -11236857.184 10 0 60559 29700.00000 0 9582121.300 19058148.771 -13955719.192 10 0 60559 30600.00000 0 8340092.371 17642589.884 -16402955.207 10 0 60559 31500.00000 0 6779874.293 16143361.077 -18531012.508 10 0 60559 32400.00000 0 4918370.719 14624025.875 -20298583.775 10 0 60559 33300.00000 0 2785215.007 13145385.301 -21671406.209 10 0 60559 34200.00000 0 421782.288 11762942.628 -22622920.225 10 0 60559 35100.00000 0 -2120292.060 10524613.330 -23134775.729 10 0 60559 36000.00000 0 -4781025.746 9468775.681 -23197177.188 10 0 60559 36900.00000 0 -7494355.003 8622742.654 -22809061.824 10 0 60559 37800.00000 0 -10190658.129 8001717.768 -21978108.607 10 0 60559 38700.00000 0 -12799432.615 7608276.982 -20720578.736 10 0 60559 39600.00000 0 -15252015.278 7432396.708 -19060991.447 10 0 60559 40500.00000 0 -17484233.238 7452025.117 -17031641.909 10 0 60559 41400.00000 0 -19438876.638 7634171.382 -14671970.743 10 0 60559 42300.00000 0 -21067891.422 7936465.951 -12027797.407 10 0 60559 43200.00000 0 -22334202.176 8309125.446 -9150432.149 10 0 60559 44100.00000 0 -23213090.300 8697238.979 -6095683.400 10 0 60559 45000.00000 0 -23693071.183 9043279.370 -2922779.567 10 0 60559 45900.00000 0 -23776234.841 9289733.390 306774.282 10 0 60559 46800.00000 0 -23478036.651 9381740.206 3530383.034 10 0 60559 47700.00000 0 -22826547.617 9269626.877 6685568.767 10 0 60559 48600.00000 0 -21861195.889 8911233.962 9711175.581 10 0 60559 49500.00000 0 -20631052.520 8273933.037 12548549.031 10 0 60559 50400.00000 0 -19192733.433 7336250.830 15142667.644 10 0 60559 51300.00000 0 -17608005.051 6089030.875 17443205.033 10 0 60559 52200.00000 0 -15941193.537 4536082.811 19405502.465 10 0 60559 53100.00000 0 -14256505.588 2694290.715 20991433.439 10 0 60559 54000.00000 0 -12615372.315 593174.210 22170143.868 10 0 60559 54900.00000 0 -11073926.742 -1726081.271 22918653.802 10 0 60559 55800.00000 0 -9680719.947 -4212086.639 23222309.033 10 0 60559 56700.00000 0 -8474770.979 -6805144.866 23075073.676 10 0 60559 57600.00000 0 -7484031.927 -9439503.311 22479657.597 10 0 60559 58500.00000 0 -6724332.380 -12045870.596 21447475.516 10 0 60559 59400.00000 0 -6198847.658 -14554094.672 19998437.649 10 0 60559 60300.00000 0 -5898113.345 -16895891.560 18160574.854 10 0 60559 61200.00000 0 -5800585.883 -19007511.548 15969504.455 10 0 60559 62100.00000 0 -5873725.871 -20832231.728 13467746.059 10 0 60559 63000.00000 0 -6075558.583 -22322570.497 10703899.777 10 0 60559 63900.00000 0 -6356645.755 -23442130.820 7731702.312 10 0 60559 64800.00000 0 -6662384.891 -24166994.364 4608979.074 10 0 60559 65700.00000 0 -6935538.087 -24486607.390 1396512.967 10 0 60559 66600.00000 0 -7118882.206 -24404120.690 -1843147.471 10 0 60559 67500.00000 0 -7157866.770 -23936169.121 -5046916.353 10 0 60559 68400.00000 0 -7003165.420 -23112100.196 -8152410.060 10 0 60559 69300.00000 0 -6613011.244 -21972684.800 -11099172.652 10 0 60559 70200.00000 0 -5955215.595 -20568365.228 -13829862.001 10 0 60559 71100.00000 0 -5008783.635 -18957115.451 -16291372.495 10 0 60559 72000.00000 0 -3765057.264 -17202004.875 -18435871.695 10 0 60559 72900.00000 0 -2228336.426 -15368569.175 -20221730.458 10 0 60559 73800.00000 0 -415952.074 -13522099.530 -21614328.516 10 0 60559 74700.00000 0 1642212.569 -11724964.547 -22586720.305 10 0 60559 75600.00000 0 3904732.559 -10034077.182 -23120148.897 10 0 60559 76500.00000 0 6320141.415 -8498612.258 -23204399.062 10 0 60559 77400.00000 0 8828858.363 -7158069.176 -22837983.674 10 0 60559 78300.00000 0 11365462.504 -6040759.456 -22028160.911 10 0 60559 79200.00000 0 13861219.525 -5162780.685 -20790782.844 10 0 60559 80100.00000 0 16246756.280 -4527517.921 -19149979.064 10 0 60559 81000.00000 0 18454772.678 -4125691.542 -17137681.968 10 0 60559 81900.00000 0 20422678.878 -3935947.713 -14793003.147 10 0 60559 82800.00000 0 22095048.971 -3925965.164 -12161472.973 10 0 60559 83700.00000 0 23425789.986 -4054030.485 -9294158.000 10 0 60559 84600.00000 0 24379936.792 -4271014.801 -6246672.960 10 0 60559 85500.00000 0 24934999.019 -4522667.977 -3078106.222 10 0 60560 0.00000 0 25081804.664 -4752133.355 150120.547 10 0 60560 900.00000 0 24824805.770 -4902577.002 3375438.539 10 0 60560 1800.00000 0 24181833.857 -4919820.282 6535336.786 10 0 60560 2700.00000 0 23183315.835 -4754865.119 9568568.735 10 0 60560 3600.00000 0 21870983.161 -4366205.064 12416333.089 10 0 60560 4500.00000 0 20296128.208 -3721824.656 15023408.119 10 0 60560 5400.00000 0 18517480.529 -2800802.343 17339217.589 10 0 60560 6300.00000 0 16598791.314 -1594448.762 19318808.095 10 0 60560 7200.00000 0 14606226.346 -106931.334 20923719.251 10 0 60560 8100.00000 0 12605675.740 1644642.481 22122730.258 10 0 60560 9000.00000 0 10660092.031 3630688.604 22892468.599 10 0 60560 9900.00000 0 8826967.115 5810139.042 23217869.143 10 0 60560 10800.00000 0 7156052.737 8131924.538 23092474.570 10 0 60560 11700.00000 0 5687419.258 10536887.410 22518570.883 10 0 60560 12600.00000 0 4449933.531 12960046.704 21507154.679 10 0 60560 13500.00000 0 3460219.396 15333122.849 20077731.890 10 0 60560 14400.00000 0 2722144.292 17587217.765 18257950.841 10 0 60560 15300.00000 0 2226853.636 19655539.328 16083075.607 10 0 60560 16200.00000 0 1953351.557 21476056.672 13595308.849 10 0 60560 17100.00000 0 1869603.562 22993975.151 10842976.395 10 0 60560 18000.00000 0 1934114.463 24163926.750 7879588.866 10 0 60560 18900.00000 0 2097914.502 24951783.355 4762798.409 10 0 60560 19800.00000 0 2306868.965 25336015.889 1553271.044 10 0 60560 20700.00000 0 2504212.481 25308541.404 -1686502.750 10 0 60560 21600.00000 0 2633199.329 24875021.914 -4893435.091 10 0 60560 22500.00000 0 2639755.948 24054602.168 -8005080.296 10 0 60560 23400.00000 0 2475021.625 22879097.521 -10960861.533 10 0 60560 24300.00000 0 2097668.191 21391666.609 -13703259.410 10 0 60560 25200.00000 0 1475899.108 19645025.495 -16178938.310 10 0 60560 26100.00000 0 589042.235 17699279.355 -18339787.741 10 0 60560 27000.00000 0 -571331.880 15619463.861 -20143858.134 10 0 60560 27900.00000 0 -2000813.957 13472900.264 -21556172.900 10 0 60560 28800.00000 0 -3682107.603 11326475.709 -22549401.408 10 0 60560 29700.00000 0 -5585530.843 9243962.796 -23104380.569 10 0 60560 30600.00000 0 -7670046.576 7283490.208 -23210475.883 10 0 60560 31500.00000 0 -9884778.906 5495269.323 -22865776.001 10 0 60560 32400.00000 0 -12170952.066 3919670.509 -22077118.122 10 0 60560 33300.00000 0 -14464171.277 2585727.732 -20859944.638 10 0 60560 34200.00000 0 -16696950.756 1510132.082 -19237994.577 10 0 60560 35100.00000 0 -18801384.058 696754.174 -17242836.320 10 0 60560 36000.00000 0 -20711846.153 136713.364 -14913250.878 10 0 60560 36900.00000 0 -22367615.339 -191010.976 -12294477.762 10 0 60560 37800.00000 0 -23715306.525 -318453.476 -9437337.878 10 0 60560 38700.00000 0 -24711015.191 -287070.628 -6397250.188 10 0 60560 39600.00000 0 -25322083.246 -145750.482 -3233160.878 10 0 60560 40500.00000 0 -25528413.671 51491.425 -6405.393 10 0 60560 41400.00000 0 -25323279.696 248032.388 3220474.929 10 0 60560 42300.00000 0 -24713594.847 387272.749 6384939.052 10 0 60560 43200.00000 0 -23719632.672 415265.002 9425652.252 10 0 60560 44100.00000 0 -22374207.988 283230.859 12283668.925 10 0 60560 45000.00000 0 -20721353.620 -50139.959 14903569.632 10 0 60560 45900.00000 0 -18814547.515 -616706.328 17234530.763 10 0 60560 46800.00000 0 -16714563.626 -1437291.759 19231306.558 10 0 60560 47700.00000 0 -14487035.566 -2520567.357 20855104.841 10 0 60560 48600.00000 0 -12199833.871 -3862449.789 22074339.874 10 0 60560 49500.00000 0 -9920365.301 -5446041.070 22865248.004 10 0 60560 50400.00000 0 -7712905.922 -7242114.489 23212354.218 10 0 60560 51300.00000 0 -5636078.326 -9210128.326 23108780.424 10 0 60560 52200.00000 0 -3740577.444 -11299727.096 22556389.052 10 0 60560 53100.00000 0 -2067239.321 -13452669.526 21565758.507 10 0 60560 54000.00000 0 -645533.120 -15605104.536 20155990.039 10 0 60560 54900.00000 0 507460.860 -17690101.566 18354348.710 10 0 60560 55800.00000 0 1387544.403 -19640330.444 16195744.295 10 0 60560 56700.00000 0 2003345.282 -21390779.186 13722061.141 10 0 60560 57600.00000 0 2375714.257 -22881395.922 10981349.121 10 0 60560 58500.00000 0 2536600.816 -24059543.714 8026890.821 10 0 60560 59400.00000 0 2527455.525 -24882164.439 4916162.926 10 0 60560 60300.00000 0 2397227.147 -25317559.836 1709712.165 10 0 60560 61200.00000 0 2200040.282 -25346713.728 -1530031.627 10 0 60560 62100.00000 0 1992653.102 -24964098.890 -4739981.296 10 0 60560 63000.00000 0 1831804.353 -24177933.900 -7857631.930 10 0 60560 63900.00000 0 1771563.640 -23009878.845 -10822288.725 10 0 60560 64800.00000 0 1860798.838 -21494182.771 -13576257.982 10 0 60560 65700.00000 0 2140869.298 -19676319.145 -16065976.994 10 0 60560 66600.00000 0 2643643.733 -17611167.407 -18243060.025 10 0 60560 67500.00000 0 3389927.429 -15360817.748 -20065239.656 10 0 60560 68400.00000 0 4388365.838 -12992092.005 -21497185.247 10 0 60560 69300.00000 0 5634871.080 -10573885.077 -22511182.972 10 0 60560 70200.00000 0 7112595.591 -8174438.393 -23087665.003 10 0 60560 71100.00000 0 8792454.025 -5858659.145 -23215578.520 10 0 60560 72000.00000 0 10634171.430 -3685596.623 -22892588.448 10 0 60560 72900.00000 0 12587813.767 -1706179.794 -22125111.061 10 0 60560 73800.00000 0 14595736.815 38691.048 -20928178.732 10 0 60560 74700.00000 0 16594872.189 1519620.798 -19325139.205 10 0 60560 75600.00000 0 18519255.361 2719704.704 -17347195.734 10 0 60560 76500.00000 0 20302690.586 3634983.154 -15032797.274 10 0 60560 77400.00000 0 21881442.066 4274349.179 -12426890.588 10 0 60560 78300.00000 0 23196839.601 4658914.437 -9580048.661 10 0 60560 79200.00000 0 24197690.548 4820861.929 -6547492.027 10 0 60560 80100.00000 0 24842397.835 4801834.921 -3388021.686 10 0 60560 81000.00000 0 25100696.074 4650930.832 -162883.928 10 0 60560 81900.00000 0 24954933.493 4422385.131 3065411.327 10 0 60560 82800.00000 0 24400846.192 4173043.199 6234296.088 10 0 60560 83700.00000 0 23447792.448 3959726.867 9282350.765 10 0 60560 84600.00000 0 22118436.955 3836606.718 12150488.555 10 0 60560 85500.00000 0 20447897.860 3852690.926 14783095.146 10 0 60561 0.00000 0 18482391.866 4049536.552 17129101.884 10 0 60561 900.00000 0 16277431.985 4459280.066 19142973.267 10 0 60561 1800.00000 0 13895654.980 5103070.193 20785586.925 10 0 60561 2700.00000 0 11404364.486 5989970.138 22024993.641 10 0 60561 3600.00000 0 8872893.678 7116376.247 22837039.690 10 0 60561 4500.00000 0 6369895.212 8465979.008 23205840.842 10 0 60561 5400.00000 0 3960670.444 10010269.755 23124098.469 10 0 60561 6300.00000 0 1704648.192 11709573.763 22593251.208 10 0 60561 7200.00000 0 -346882.633 13514568.361 21623458.594 10 0 60561 8100.00000 0 -2152692.558 15368224.353 20233416.060 10 0 60561 9000.00000 0 -3683103.528 17208091.029 18450003.849 10 0 60561 9900.00000 0 -4920991.157 18968830.235 16307775.500 10 0 60561 10800.00000 0 -5862255.453 20584893.987 13848294.816 10 0 60561 11700.00000 0 -6515740.414 21993233.548 11119333.237 10 0 60561 12600.00000 0 -6902606.098 23135925.870 8173942.668 10 0 60561 13500.00000 0 -7055180.012 23962606.283 5069421.562 10 0 60561 14400.00000 0 -7015336.940 24432604.084 1866194.516 10 0 60561 15300.00000 0 -6832476.572 24516689.854 -1373372.147 10 0 60561 16200.00000 0 -6561185.688 24198359.781 -4586194.841 10 0 60561 17100.00000 0 -6258685.285 23474601.803 -7709712.185 10 0 60561 18000.00000 0 -5982172.346 22356110.603 -10683114.004 10 0 60561 18900.00000 0 -5786170.404 20866942.014 -13448534.676 10 0 60561 19800.00000 0 -5720002.586 19043621.376 -15952186.536 10 0 60561 20700.00000 0 -5825495.311 16933743.642 -18145410.441 10 0 60561 21600.00000 0 -6135010.725 14594124.549 -19985622.677 10 0 60561 22500.00000 0 -6669891.565 12088580.940 -21437139.806 10 0 60561 23400.00000 0 -7439384.361 9485433.723 -22471865.790 10 0 60561 24300.00000 0 -8440086.348 6854838.183 -23069828.758 10 0 60561 25200.00000 0 -9655939.172 4266053.015 -23219557.979 10 0 60561 26100.00000 0 -11058769.367 1784761.611 -22918294.739 10 0 60561 27000.00000 0 -12609352.655 -529443.708 -22172034.133 10 0 60561 27900.00000 0 -14258957.276 -2625311.043 -20995397.896 10 0 60561 28800.00000 0 -15951301.624 -4461819.842 -19411341.500 10 0 60561 29700.00000 0 -17624844.386 -6009636.541 -17450701.753 10 0 60561 30600.00000 0 -19215311.635 -7252076.378 -15151593.912 10 0 60561 31500.00000 0 -20658355.532 -8185533.325 -12558670.121 10 0 60561 32400.00000 0 -21892233.905 -8819362.222 -9722253.386 10 0 60561 33300.00000 0 -22860399.087 -9175219.887 -6697363.620 10 0 60561 34200.00000 0 -23513888.083 -9285894.351 -3542654.358 10 0 60561 35100.00000 0 -23813414.467 -9193672.676 -319280.361 10 0 60561 36000.00000 0 -23731074.631 -8948316.817 2910282.318 10 0 60561 36900.00000 0 -23251597.090 -8604733.318 6083441.242 10 0 60561 37800.00000 0 -22373082.238 -8220435.171 9138694.521 10 0 60561 38700.00000 0 -21107201.372 -7852902.955 12016816.752 10 0 60561 39600.00000 0 -19478846.206 -7556956.485 14662001.319 10 0 60561 40500.00000 0 -17525242.646 -7382247.544 17022937.377 10 0 60561 41400.00000 0 -15294564.881 -7370979.367 19053801.099 10 0 60561 42300.00000 0 -12844106.501 -7555949.036 20715142.370 10 0 60561 43200.00000 0 -10238083.638 -7958995.554 21974650.150 10 0 60561 44100.00000 0 -7545160.271 -8589919.549 22807781.923 10 0 60561 45000.00000 0 -4835797.414 -9445921.017 23198245.125 10 0 60561 45900.00000 0 -2179535.211 -10511580.022 23138321.073 10 0 60561 46800.00000 0 357680.142 -11759382.747 22629024.735 10 0 60561 47700.00000 0 2716014.298 -13150772.506 21680096.555 10 0 60561 48600.00000 0 4844003.387 -14637683.355 20309825.621 10 0 60561 49500.00000 0 6700459.732 -16164493.538 18544706.528 10 0 60561 50400.00000 0 8255945.367 -17670318.047 16418935.468 10 0 60561 51300.00000 0 9493751.960 -19091544.898 13973754.270 10 0 60561 52200.00000 0 10410346.195 -20364508.953 11256654.215 10 0 60561 53100.00000 0 11015262.083 -21428190.659 8320454.494 10 0 60561 54000.00000 0 11330445.035 -22226825.540 5222273.013 10 0 60561 54900.00000 0 11389075.868 -22712313.484 2022409.686 10 0 60561 55800.00000 0 11233925.132 -22846325.035 -1216835.411 10 0 60561 56700.00000 0 10915308.420 -22602014.515 -4432385.103 10 0 60561 57600.00000 0 10488730.407 -21965266.426 -7561624.442 10 0 60561 58500.00000 0 10012318.867 -20935421.512 -10543630.784 10 0 60561 59400.00000 0 9544158.832 -19525451.098 -13320369.442 10 0 60561 60300.00000 0 9139641.212 -17761571.936 -15837830.545 10 0 60561 61200.00000 0 8848939.346 -15682317.698 -18047084.121 10 0 60561 62100.00000 0 8714721.188 -13337106.283 -19905232.497 10 0 60561 63000.00000 0 8770194.368 -10784363.388 -21376241.467 10 0 60561 63900.00000 0 9037566.902 -8089281.282 -22431634.409 10 0 60561 64800.00000 0 9526988.322 -5321306.735 -23051036.620 10 0 60561 65700.00000 0 10236015.454 -2551462.961 -23222560.202 10 0 60561 66600.00000 0 11149624.797 150383.061 -22943023.113 10 0 60561 67500.00000 0 12240770.398 2718194.817 -22217999.155 10 0 60561 68400.00000 0 13471463.278 5092271.815 -21061698.921 10 0 60561 69300.00000 0 14794326.760 7221483.667 -19496684.759 10 0 60561 70200.00000 0 16154562.214 9065141.454 -17553425.828 10 0 60561 71100.00000 0 17492242.867 10594430.429 -15269702.176 10 0 60561 72000.00000 0 18744839.610 11793346.324 -12689869.469 10 0 60561 72900.00000 0 19849873.259 12659098.267 -9863998.547 10 0 60561 73800.00000 0 20747582.422 13201963.305 -6846906.208 10 0 60561 74700.00000 0 21383495.479 13444600.369 -3697095.747 10 0 60561 75600.00000 0 21710799.163 13420853.820 -475627.412 10 0 60561 76500.00000 0 21692404.594 13174097.889 2755059.712 10 0 60561 77400.00000 0 21302624.187 12755192.360 5932351.879 10 0 60561 78300.00000 0 20528388.946 12220135.869 8994667.970 10 0 60561 79200.00000 0 19369954.717 11627515.798 11882646.887 10 0 60561 80100.00000 0 17841067.204 11035862.143 14540292.405 10 0 60561 81000.00000 0 15968577.992 10501016.586 16916053.732 10 0 60561 81900.00000 0 13791526.488 10073627.391 18963821.298 10 0 60561 82800.00000 0 11359724.735 9796875.386 20643818.876 10 0 60561 83700.00000 0 8731902.715 9704526.759 21923375.131 10 0 60561 84600.00000 0 5973489.813 9819394.827 22777559.941 10 0 60561 85500.00000 0 3154123.244 10152275.933 23189673.203 10 0 60562 0.00000 0 344985.841 10701405.011 23151576.585 10 0 60562 900.00000 0 -2383918.973 11452455.095 22663861.295 10 0 60562 1800.00000 0 -4966439.049 12379081.360 21735848.107 10 0 60562 2700.00000 0 -7342786.975 13443989.265 20385418.707 10 0 60562 3600.00000 0 -9461787.316 14600482.631 18638680.518 10 0 60562 4500.00000 0 -11282765.804 15794428.095 16529470.435 10 0 60562 5400.00000 0 -12777001.513 16966554.201 14098706.035 10 0 60562 6300.00000 0 -13928681.331 18054988.891 11393595.893 10 0 60562 7200.00000 0 -14735316.749 18997928.511 8466723.785 10 0 60562 8100.00000 0 -15207605.607 19736325.401 5375024.280 10 0 60562 9000.00000 0 -15368744.942 20216479.750 2178669.791 10 0 60562 9900.00000 0 -15253224.475 20392425.118 -1060108.650 10 0 60562 10800.00000 0 -14905152.549 20228005.469 -4278243.050 10 0 60562 11700.00000 0 -14376186.416 19698554.549 -7413067.573 10 0 60562 12600.00000 0 -13723155.756 18792105.393 -10403549.674 10 0 60562 13500.00000 0 -13005481.445 17510077.831 -13191487.991 10 0 60562 14400.00000 0 -12282500.244 15867414.237 -15722652.614 10 0 60562 15300.00000 0 -11610809.820 13892157.347 -17947844.643 10 0 60562 16200.00000 0 -11041747.360 11624487.757 -19823854.051 10 0 60562 17100.00000 0 -10619108.899 9115261.530 -21314297.133 10 0 60562 18000.00000 0 -10377205.839 6424109.368 -22390317.652 10 0 60562 18900.00000 0 -10339340.403 3617176.992 -23031138.704 10 0 60562 19800.00000 0 -10516763.731 764601.039 -23224455.550 10 0 60562 20700.00000 0 -10908159.700 -2062174.454 -22966662.792 10 0 60562 21600.00000 0 -11499675.269 -4793129.838 -22262912.585 10 0 60562 22500.00000 0 -12265495.201 -7362337.090 -21127003.680 10 0 60562 23400.00000 0 -13168936.224 -9710452.795 -19581104.257 10 0 60562 24300.00000 0 -14164014.076 -11786934.688 -17655314.479 10 0 60562 25200.00000 0 -15197417.257 -13551891.271 -15387077.554 10 0 60562 26100.00000 0 -16210804.465 -14977489.319 -12820450.838 10 0 60562 27000.00000 0 -17143329.260 -16048862.524 -10005251.008 10 0 60562 27900.00000 0 -17934286.130 -16764485.168 -6996089.645 10 0 60562 28800.00000 0 -18525767.043 -17135996.898 -3851317.627 10 0 60562 29700.00000 0 -18865217.130 -17187487.367 -631898.451 10 0 60562 30600.00000 0 -18907782.371 -16954272.004 2599768.067 10 0 60562 31500.00000 0 -18618350.685 -16481211.095 5781049.232 10 0 60562 32400.00000 0 -17973200.517 -15820643.269 8850287.125 10 0 60562 33300.00000 0 -16961187.424 -15030020.672 11747987.429 10 0 60562 34200.00000 0 -15584418.226 -14169345.204 14417966.778 10 0 60562 35100.00000 0 -13858383.584 -13298513.525 16808436.829 10 0 60562 36000.00000 0 -11811542.222 -12474682.160 18873004.515 10 0 60562 36900.00000 0 -9484372.775 -11749763.196 20571569.510 10 0 60562 37800.00000 0 -6927931.182 -11168155.576 21871101.909 10 0 60562 38700.00000 0 -4201972.013 -10764807.220 22746285.361 10 0 60562 39600.00000 0 -1372710.175 -10563689.486 23180013.234 10 0 60562 40500.00000 0 1489685.595 -10576748.411 23163728.139 10 0 60562 41400.00000 0 4313764.878 -10803377.422 22697597.823 10 0 60562 42300.00000 0 7029523.515 -11230434.543 21790523.371 10 0 60562 43200.00000 0 9571075.056 -11832804.429 20459978.704 10 0 60562 44100.00000 0 11879155.228 -12574482.733 18731683.404 10 0 60562 45000.00000 0 13903355.536 -13410138.233 16639114.096 10 0 60562 45900.00000 0 15603992.930 -14287087.833 14222862.793 10 0 60562 46800.00000 0 16953537.439 -15147601.748 11529853.723 10 0 60562 47700.00000 0 17937537.814 -15931441.793 8612433.231 10 0 60562 48600.00000 0 18555006.319 -16578525.297 5527350.183 10 0 60562 49500.00000 0 18818246.575 -17031601.362 2334646.816 10 0 60562 50400.00000 0 18752132.010 -17238825.211 -903517.817 10 0 60562 51300.00000 0 18392865.962 -17156120.384 -4124087.977 10 0 60562 52200.00000 0 17786276.693 -16749227.411 -7264350.083 10 0 60562 53100.00000 0 16985720.535 -15995350.845 -10263164.787 10 0 60562 54000.00000 0 16049683.106 -14884333.794 -13062167.048 10 0 60562 54900.00000 0 15039181.418 -13419309.272 -15606909.730 10 0 60562 55800.00000 0 14015077.928 -11616800.184 -17847927.600 10 0 60562 56700.00000 0 13035421.035 -9506263.247 -19741700.576 10 0 60562 57600.00000 0 12152924.972 -7129095.785 -21251497.447 10 0 60562 58500.00000 0 11412695.642 -4537147.039 -22348083.955 10 0 60562 59400.00000 0 10850298.034 -1790796.255 -23010282.181 10 0 60562 60300.00000 0 10490245.989 1043322.165 -23225371.271 10 0 60562 61200.00000 0 10344976.904 3894851.758 -22989322.768 10 0 60562 62100.00000 0 10414353.339 6692400.249 -22306867.029 10 0 60562 63000.00000 0 10685711.225 9366267.871 -21191390.407 10 0 60562 63900.00000 0 11134451.431 11851105.255 -19664665.984 10 0 60562 64800.00000 0 11725148.813 14088391.599 -17756423.644 10 0 60562 65700.00000 0 12413131.267 16028631.550 -15503768.139 10 0 60562 66600.00000 0 13146461.913 17633180.931 -12950456.571 10 0 60562 67500.00000 0 13868240.702 18875626.976 -10146049.201 10 0 60562 68400.00000 0 14519128.616 19742667.184 -7144949.843 10 0 60562 69300.00000 0 15039988.318 20234451.661 -4005354.156 10 0 60562 70200.00000 0 15374530.309 20364376.077 -788125.892 10 0 60562 71100.00000 0 15471853.421 20158335.084 2444377.516 10 0 60562 72000.00000 0 15288772.815 19653468.391 5629507.564 10 0 60562 72900.00000 0 14791837.518 18896452.744 8705532.592 10 0 60562 73800.00000 0 13958952.359 17941411.794 11612827.978 10 0 60562 74700.00000 0 12780535.615 16847531.694 14295025.915 10 0 60562 75600.00000 0 11260162.981 15676482.459 16700102.952 10 0 60562 76500.00000 0 9414669.642 14489752.957 18781384.689 10 0 60562 77400.00000 0 7273704.754 13346011.039 20498448.556 10 0 60562 78300.00000 0 4878755.238 12298599.139 21817907.611 10 0 60562 79200.00000 0 2281677.725 11393270.094 22714060.440 10 0 60562 80100.00000 0 -457202.084 10666257.887 23169394.664 10 0 60562 81000.00000 0 -3271345.481 10142764.273 23174934.209 10 0 60562 81900.00000 0 -6090520.199 9835924.919 22730423.230 10 0 60562 82800.00000 0 -8843480.008 9746298.918 21844342.484 10 0 60562 83700.00000 0 -11460694.312 9861903.734 20533756.992 10 0 60562 84600.00000 0 -13877015.065 10158794.858 18823996.863 10 0 60562 85500.00000 0 -16034170.444 10602166.582 16748176.366 99